Location: Wavehorne
(51.0500°N, 0.8333°E)
Time: 15:57:31
(UTC+00:00)

Lacrosse 4 Rocket - Pass Details

Date: 20 June 2021
Orbit: 543 x 614 km, 68.0° (Epoch: 03 August)

Event Time Altitude Azimuth Distance (km) Brightness Sun altitude
Rises 01:07:16 0° 326° (NW) 2,759 5.5 -14.0°
Reaches altitude 10° 01:09:33 10° 331° (NNW) 1,849 4.6 -13.9°
Maximum altitude 01:13:37 56° 50° (NE) 657 2.0 -13.7°
Drops below altitude 10° 01:17:36 10° 130° (SE) 1,812 3.7 -13.5°
Sets 01:19:48 0° 135° (SE) 2,698 4.6 -13.4°
